Bookmark and Share
Track history (hours):
 

Ferry Kyoto2

Last reported at 2014-Apr-24 10:30 UTC. Time now 2014-Apr-24 11:12 UTC.
Position N 34°37' E 135°26'.

Length 167 m; draft 6 m.

Type: Passenger vessel. MMSI: 431301641.

NotesDate/timePositionNaut miles runAvg speedWind from/ knotsBaromVisibWave heightAir tempDewpointWater temp
2014-Apr-24 10:30N 34°37' E 135°26'0 0.0
2014-Apr-24 09:24N 34°37' E 135°26'0 0.0
2014-Apr-24 08:24N 34°37' E 135°26'0 0.0
2014-Apr-24 07:30N 34°37' E 135°26'0 0.0
2014-Apr-24 06:30N 34°37' E 135°26'0 0.0
2014-Apr-24 05:30N 34°37' E 135°26'0 0.0
2014-Apr-24 04:30N 34°37' E 135°26'0 0.0
2014-Apr-24 03:30N 34°37' E 135°26'0 0.0
2014-Apr-24 02:24N 34°37' E 135°26'0 0.0
2014-Apr-24 01:30N 34°37' E 135°26'0 0.0
2014-Apr-24 00:30N 34°37' E 135°26'0 0.0
2014-Apr-23 23:30N 34°37' E 135°26'1212.6
2014-Apr-23 22:33N 34°35' E 135°11'1918.8
2014-Apr-23 21:33N 34°33' E 134°49'1 0.0
2014-Apr-22 12:32N 34°34' E 134°50'1919.5
2014-Apr-22 11:33N 34°36' E 135°13'11 9.0
2014-Apr-22 10:23N 34°37' E 135°26'0 0.0
2014-Apr-22 09:23N 34°37' E 135°26'0 0.0
2014-Apr-22 08:29N 34°37' E 135°26'0 0.0
2014-Apr-22 07:33N 34°37' E 135°26'0 0.0
2014-Apr-22 06:33N 34°37' E 135°26'0 0.0
2014-Apr-22 05:33N 34°37' E 135°26'0 0.0
2014-Apr-22 04:33N 34°37' E 135°26'0 0.0
2014-Apr-22 03:33N 34°37' E 135°26'0 0.0
2014-Apr-22 02:33N 34°37' E 135°26'0 0.0
2014-Apr-22 01:33N 34°37' E 135°26'0 0.0
2014-Apr-22 00:33N 34°37' E 135°26'0 0.0
2014-Apr-21 23:33N 34°37' E 135°26'1212.5
2014-Apr-21 22:33N 34°35' E 135°11'2019.2
2014-Apr-21 21:32N 34°32' E 134°47'2 0.1
2014-Apr-20 12:33N 34°34' E 134°46'2121.6
2014-Apr-20 11:33N 34°36' E 135°12'1210.4
2014-Apr-20 10:26N 34°37' E 135°26'0 0.0
2014-Apr-20 09:32N 34°37' E 135°26'0 0.0
2014-Apr-20 08:26N 34°37' E 135°26'0 0.0
2014-Apr-20 07:26N 34°37' E 135°26'0 0.0
2014-Apr-20 06:32N 34°37' E 135°26'0 0.0
2014-Apr-20 05:32N 34°37' E 135°26'0 0.0
2014-Apr-20 04:32N 34°37' E 135°26'0 0.0
2014-Apr-20 03:26N 34°37' E 135°26'0 0.0
2014-Apr-20 02:32N 34°37' E 135°26'0 0.0
2014-Apr-20 01:08N 34°37' E 135°26'0 0.0
2014-Apr-20 00:32N 34°37' E 135°26'0 0.0
2014-Apr-19 23:32N 34°37' E 135°26'1212.7
2014-Apr-19 22:33N 34°35' E 135°11'2120.9
2014-Apr-19 21:33N 34°32' E 134°46'2 0.1
2014-Apr-18 12:32N 34°34' E 134°47'2121.9
2014-Apr-18 11:33N 34°36' E 135°12'1110.7
2014-Apr-18 10:30N 34°37' E 135°26'0 0.0
2014-Apr-18 08:30N 34°37' E 135°26'0 0.0
2014-Apr-18 07:30N 34°37' E 135°26'0 0.0
2014-Apr-18 06:30N 34°37' E 135°26'0 0.0
2014-Apr-18 05:24N 34°37' E 135°26'0 0.0
2014-Apr-18 04:30N 34°37' E 135°26'0 0.0
2014-Apr-18 03:30N 34°37' E 135°26'0 0.0
2014-Apr-18 02:30N 34°37' E 135°26'0 0.0
2014-Apr-18 01:30N 34°37' E 135°26'0 0.0
2014-Apr-18 00:30N 34°37' E 135°26'0 0.0
2014-Apr-17 23:33N 34°37' E 135°26'9 9.1
2014-Apr-17 22:33N 34°35' E 135°15'1716.7
2014-Apr-17 21:33N 34°35' E 134°55'4 0.1
2014-Apr-16 12:33N 34°34' E 134°50'2221.6
2014-Apr-16 11:33N 34°36' E 135°17'8 5.7
2014-Apr-16 10:12N 34°37' E 135°26'0 0.0
2014-Apr-16 09:24N 34°37' E 135°26'0 0.0
2014-Apr-16 08:30N 34°37' E 135°26'0 0.0
2014-Apr-16 07:30N 34°37' E 135°26'0 0.0
2014-Apr-16 06:30N 34°37' E 135°26'0 0.0
2014-Apr-16 05:24N 34°37' E 135°26'0 0.0
2014-Apr-16 04:30N 34°37' E 135°26'0 0.0
2014-Apr-16 03:18N 34°37' E 135°26'0 0.0
2014-Apr-16 02:24N 34°37' E 135°26'0 0.0
2014-Apr-16 01:12N 34°37' E 135°26'0 0.0
2014-Apr-16 00:30N 34°37' E 135°26'0 0.0
2014-Apr-15 23:30N 34°37' E 135°26'1212.6
2014-Apr-15 22:33N 34°35' E 135°12'1818.2
2014-Apr-15 21:34N 34°33' E 134°50'1 0.0
2014-Apr-14 11:33N 34°34' E 134°48'2222.6
2014-Apr-14 10:34N 34°36' E 135°15'  

Dump ship's entire track history

sailing weather and tide predictions

Ferry Kyoto2 — JI3701 — position and weather